Location: Heisede
(52.2582°N, 9.8523°E)
Time: 23:56:45
(UTC+00:00)

Resurs 01 Rocket - Pass Details

Date: 13 January 2026
Orbit: 628 x 635 km, 97.7° (Epoch: 17 February)

Event Time Altitude Azimuth Distance (km) Brightness Sun altitude
Rises 06:30:49 0° 22° (NNE) 2,934 5.0 -7.9°
Reaches altitude 10° 06:33:18 10° 34° (NE) 2,022 4.3 -7.6°
Maximum altitude 06:37:05 27° 94° (E) 1,209 4.0 -7.1°
Drops below altitude 10° 06:40:50 10° 153° (SSE) 2,012 5.1 -6.6°
Sets 06:43:17 0° 165° (SSE) 2,916 5.7 -6.2°
